FW1241 Weather Reports


Display with metric or nautical units.
time (UTC)temp
F
wind
direction
speed
MPH
gust
MPH
rain 1hr
in
rain 24hr
in
rain mn
in
humidity
%
barometer
mb
20260502140105 58 111 0.0 1.0 0.00 0.00 0.00 84 1010.7
20260502130604 58 181 0.0 0.0 0.00 0.00 0.00 83 1009.8
20260502123605 58 181 0.0 0.0 0.00 0.00 0.00 83 1009.5
20260502122604 58 181 0.0 0.0 0.00 0.00 0.00 82 1009.4
20260502120605 58 143 0.0 0.0 0.00 0.00 0.00 82 1009.2
20260502120104 58 142 0.0 0.0 0.00 0.00 0.00 82 1009.3
20260502113604 59 111 0.0 1.0 0.00 0.00 0.00 81 1009.5
20260502112604 59 105 0.0 2.0 0.00 0.00 0.00 81 1009.4
20260502112105 59 207 0.0 0.0 0.00 0.00 0.00 81 1009.5
20260502111605 60 155 0.0 0.0 0.00 0.00 0.00 81 1009.5
20260502105604 60 160 0.0 0.0 0.00 0.00 0.00 80 1009.5
20260502105105 60 160 0.0 0.0 0.00 0.00 0.00 80 1009.4
20260502104604 60 160 0.0 0.0 0.00 0.00 0.00 79 1009.4
20260502103605 61 160 0.0 0.0 0.00 0.00 0.00 80 1009.4
20260502103104 61 160 0.0 0.0 0.00 0.00 0.00 81 1009.3
20260502102605 61 160 0.0 0.0 0.00 0.00 0.00 81 1009.3
20260502101104 61 160 0.0 0.0 0.00 0.00 0.00 80 1009.3
20260502100605 62 160 0.0 0.0 0.00 0.00 0.00 80 1009.3
20260502091104 64 108 0.0 0.0 0.00 0.00 0.00 71 1009.8
20260502090604 64 108 0.0 0.0 0.00 0.00 0.00 72 1009.8
20260502090104 64 107 0.0 0.0 0.00 0.00 0.00 73 1009.9
20260502071106 64 132 0.0 0.0 0.00 0.00 0.00 74 1010.3
20260502070605 65 132 0.0 0.0 0.00 0.00 0.00 73 1010.3
20260502065604 65 132 0.0 0.0 0.00 0.00 0.00 73 1010.2
20260502065104 65 132 0.0 0.0 0.00 0.00 0.00 73 1010.1
20260502064105 65 132 0.0 0.0 0.00 0.00 0.00 73 1010.1
20260502063605 66 132 0.0 0.0 0.00 0.00 0.00 73 1010.0
20260502062605 67 128 0.0 0.0 0.00 0.00 0.00 72 1009.9
20260502062104 67 128 0.0 1.0 0.00 0.00 0.00 70 1009.8
20260502061104 67 117 0.0 0.0 0.00 0.00 0.00 69 1009.8
20260502060605 68 117 0.0 0.0 0.00 0.00 0.00 69 1009.8
20260502055104 69 195 0.0 0.0 0.00 0.00 0.00 67 1009.6
20260502052604 69 201 0.0 0.0 0.00 0.00 0.00 69 1009.6
20260502051105 69 201 0.0 0.0 0.00 0.00 0.00 68 1009.5
20260502050104 70 201 0.0 0.0 0.00 0.00 0.00 69 1009.4
20260502044104 71 201 0.0 0.0 0.00 0.00 0.00 67 1009.3
20260502042605 71 283 0.0 0.0 0.00 0.00 0.00 63 1009.1
20260502041605 72 283 0.0 0.0 0.00 0.00 0.00 62 1008.9
20260502032604 75 283 0.0 0.0 0.00 0.00 0.00 55 1008.2
20260502031607 76 283 0.0 0.0 0.00 0.00 0.00 54 1008.2
20260502031105 76 283 0.0 0.0 0.00 0.00 0.00 52 1008.1
20260502030605 77 283 0.0 0.0 0.00 0.00 0.00 52 1008.1
20260502024104 80 283 0.0 0.0 0.00 0.00 0.00 46 1008.0
20260502023604 80 283 0.0 0.0 0.00 0.00 0.00 46 1008.0
20260502022604 82 283 0.0 0.0 0.00 0.00 0.00 43 1008.0
20260502022105 82 283 0.0 0.0 0.00 0.00 0.00 43 1008.0
20260502020604 83 283 0.0 0.0 0.00 0.00 0.00 40 1008.0
20260502013105 87 276 0.0 3.0 0.00 0.00 0.00 35 1008.1
20260502012105 87 296 0.0 3.0 0.00 0.00 0.00 34 1008.1
20260502011605 87 335 0.0 1.0 0.00 0.00 0.00 35 1008.2
20260502005604 87 325 0.0 2.0 0.00 0.00 0.00 34 1008.2
20260502005104 87 296 1.0 3.0 0.00 0.00 0.00 34 1008.2
20260502003604 87 308 1.0 3.0 0.00 0.00 0.00 33 1008.3
20260502002605 87 305 0.0 5.0 0.00 0.00 0.00 33 1008.3
20260502001604 88 311 1.0 3.0 0.00 0.00 0.00 32 1008.5
20260501235604 87 294 1.0 3.0 0.00 0.00 0.00 31 1008.6
20260501233605 88 319 1.0 3.0 0.00 0.00 0.00 31 1008.8
20260501233105 88 267 1.0 5.0 0.00 0.00 0.00 32 1008.8
20260501232604 88 305 1.0 3.0 0.00 0.00 0.00 30 1008.9
20260501232105 88 302 0.0 2.0 0.00 0.00 0.00 30 1008.9
20260501230605 88 5 0.0 1.0 0.00 0.00 0.00 29 1009.0
20260501230104 88 306 0.0 3.0 0.00 0.00 0.00 28 1009.0
20260501225104 87 287 1.0 3.0 0.00 0.00 0.00 31 1009.2
20260501224605 87 298 1.0 5.0 0.00 0.00 0.00 31 1009.3
20260501223605 87 197 0.0 3.0 0.00 0.00 0.00 33 1009.5
20260501223105 87 332 2.0 3.0 0.00 0.00 0.00 31 1009.6
20260501222604 87 318 1.0 3.0 0.00 0.00 0.00 31 1009.7
20260501222104 87 306 1.0 3.0 0.00 0.00 0.00 33 1009.8
20260501221104 87 314 0.0 2.0 0.00 0.00 0.00 32 1009.9
20260501220104 87 292 0.0 3.0 0.00 0.00 0.00 32 1010.1
20260501214604 87 312 1.0 5.0 0.00 0.00 0.00 34 1010.4
20260501213106 86 292 1.0 3.0 0.00 0.00 0.00 35 1010.4
20260501212605 86 298 1.0 6.0 0.00 0.00 0.00 37 1010.5
20260501211104 87 346 1.0 3.0 0.00 0.00 0.00 35 1010.7
20260501210105 86 335 0.0 2.0 0.00 0.00 0.00 34 1010.9
20260501205604 86 305 0.0 3.0 0.00 0.00 0.00 35 1010.9
20260501204604 85 353 1.0 3.0 0.00 0.00 0.00 35 1011.0
20260501203104 85 309 0.0 0.0 0.00 0.00 0.00 37 1011.1
20260501202604 85 222 0.0 1.0 0.00 0.00 0.00 39 1011.2
20260501202104 84 302 0.0 1.0 0.00 0.00 0.00 38 1011.2
20260501201604 85 305 1.0 3.0 0.00 0.00 0.00 38 1011.3
20260501200605 85 293 0.0 2.0 0.00 0.00 0.00 43 1011.4
20260501194604 82 106 0.0 1.0 0.00 0.00 0.00 42 1011.9
20260501193604 82 301 0.0 3.0 0.00 0.00 0.00 44 1012.0
20260501193104 82 256 0.0 2.0 0.00 0.00 0.00 44 1012.0
20260501192105 82 290 0.0 1.0 0.00 0.00 0.00 46 1012.1
20260501191604 82 93 1.0 3.0 0.00 0.00 0.00 44 1012.3
20260501191104 81 294 0.0 1.0 0.00 0.00 0.00 44 1012.4
20260501190604 81 301 0.0 2.0 0.00 0.00 0.00 47 1012.5
20260501185605 81 37 0.0 3.0 0.00 0.00 0.00 49 1012.6
20260501184104 82 315 0.0 3.0 0.00 0.00 0.00 47 1012.8
20260501183604 82 107 0.0 2.0 0.00 0.00 0.00 47 1012.9
20260501181604 80 182 0.0 3.0 0.00 0.00 0.00 50 1013.1
20260501181105 79 5 0.0 2.0 0.00 0.00 0.00 50 1013.2
20260501180604 79 317 0.0 3.0 0.00 0.00 0.00 51 1013.2
20260501175604 78 319 0.0 3.0 0.00 0.00 0.00 51 1013.3
20260501175105 78 180 1.0 2.0 0.00 0.00 0.00 52 1013.3
20260501174604 78 314 0.0 2.0 0.00 0.00 0.00 52 1013.3
20260501174104 78 212 1.0 3.0 0.00 0.00 0.00 52 1013.4
20260501173605 77 160 1.0 3.0 0.00 0.00 0.00 53 1013.5
20260501172604 77 99 0.0 3.0 0.00 0.00 0.00 53 1013.6
20260501172105 76 166 0.0 3.0 0.00 0.00 0.00 54 1013.7
20260501171604 76 176 1.0 3.0 0.00 0.00 0.00 55 1013.7
20260501171105 75 317 1.0 3.0 0.00 0.00 0.00 56 1013.7
20260501163604 73 169 0.0 3.0 0.00 0.00 0.00 59 1014.0
20260501162105 72 136 0.0 3.0 0.00 0.00 0.00 61 1013.9
20260501153605 68 163 0.0 2.0 0.00 0.00 0.00 67 1013.8
20260501153104 67 122 0.0 0.0 0.00 0.00 0.00 67 1013.8
20260501152605 67 166 0.0 2.0 0.00 0.00 0.00 69 1013.8
20260501151604 66 171 1.0 2.0 0.00 0.00 0.00 68 1013.8
20260501150604 65 178 1.0 3.0 0.00 0.00 0.00 70 1013.8
20260501150105 65 139 0.0 2.0 0.00 0.00 0.00 72 1013.8
20260501145104 64 190 1.0 2.0 0.00 0.00 0.00 74 1013.8
20260501142604 60 176 0.0 1.0 0.00 0.00 0.00 83 1013.5